DW0326 Weather Reports


time (UTC)temp
C
wind
direction
speed
KPH
gust
KPH
rain 1hr
cm
rain 24hr
cm
rain mn
cm
humidity
%
barometer
mb
20260906222134 31 0 0.0 0.0 0.00 0.00 0.00 76 1007.3
20260906221234 31 0 0.0 0.0 0.00 0.00 0.00 76 1007.3
20260906220334 31 0 0.0 0.0 0.00 0.00 0.00 77 1007.7
20260906185157 28 199 3.2 16.1 0.00 0.00 0.00 86 1009.7
20260906184256 29 242 0.0 14.5 0.00 0.00 0.00 85 1009.8
20260906181557 30 0 0.0 0.0 0.00 0.00 0.00 79 1009.6
20260906175756 31 78 0.0 8.0 0.00 0.00 0.00 78 1009.8
20260906174857 31 83 1.6 14.5 0.00 0.00 0.00 79 1009.8
20260906173957 31 39 1.6 17.7 0.00 0.00 0.00 80 1009.8
20260906173056 31 25 4.8 19.3 0.00 0.00 0.00 77 1009.7
20260906172156 32 36 3.2 19.3 0.00 0.00 0.00 78 1009.7
20260906171257 31 61 3.2 16.1 0.00 0.00 0.00 78 1009.9
20260906170357 31 78 1.6 9.7 0.00 0.00 0.00 79 1009.8
20260906164557 30 0 0.0 0.0 0.00 0.00 0.00 85 1010.0
20260906163656 30 0 0.0 0.0 0.00 0.00 0.00 86 1010.0
20260906162757 30 0 0.0 0.0 0.00 0.00 0.00 82 1010.1
20260906161856 30 0 0.0 0.0 0.00 0.00 0.00 82 1009.9
20260906160956 30 0 0.0 0.0 0.00 0.00 0.00 84 1009.9
20260906160057 31 0 0.0 0.0 0.00 0.00 0.00 85 1009.9
20260906155157 31 0 0.0 0.0 0.00 0.00 0.00 83 1009.9
20260906154257 31 0 0.0 0.0 0.00 0.00 0.00 83 1009.7
20260906153356 31 0 0.0 0.0 0.00 0.00 0.00 82 1009.7
20260906152457 31 1 0.0 1.6 0.00 0.00 0.00 82 1009.7
20260906151557 31 1 1.6 9.7 0.00 0.00 0.00 83 1009.7
20260906150657 30 359 0.0 8.0 0.00 0.00 0.00 84 1009.7
20260906144857 30 0 0.0 0.0 0.00 0.00 0.00 86 1009.6
20260906143056 30 0 0.0 0.0 0.00 0.00 0.00 89 1009.7
20260906141256 29 0 0.0 0.0 0.00 0.00 0.00 90 1009.8
20260906140357 28 0 0.0 0.0 0.00 0.00 0.00 90 1009.6
20260906135457 28 0 0.0 0.0 0.00 0.00 0.00 92 1009.6
20260906134557 27 0 0.0 0.0 0.00 0.00 0.00 93 1009.6
20260906133657 27 0 0.0 0.0 0.00 0.00 0.00 95 1009.6
20260906132757 27 0 0.0 0.0 0.00 0.00 0.00 95 1009.5
20260906131857 27 0 0.0 0.0 0.00 0.00 0.00 96 1009.2
20260906130957 27 0 0.0 0.0 0.00 0.00 0.00 97 1009.2
20260906130056 27 0 0.0 0.0 0.00 0.00 0.00 96 1009.1
20260906124257 26 0 0.0 0.0 0.00 0.00 0.00 95 1008.9
20260906123357 26 0 0.0 0.0 0.00 0.00 0.00 96 1008.7
20260906121557 26 0 0.0 0.0 0.00 0.00 0.00 95 1008.6
20260906120657 26 0 0.0 0.0 0.00 0.00 0.00 95 1008.6
20260906115756 26 0 0.0 0.0 0.00 0.00 0.00 95 1008.2
20260906114857 26 0 0.0 0.0 0.00 0.00 0.00 95 1008.2
20260906113957 27 0 0.0 0.0 0.00 0.00 0.00 95 1008.2
20260906113057 27 0 0.0 0.0 0.00 0.00 0.00 95 1008.3
20260906112157 27 0 0.0 0.0 0.00 0.00 0.00 95 1008.3
20260906111256 26 0 0.0 0.0 0.00 0.00 0.00 94 1008.1
20260906110357 26 0 0.0 0.0 0.00 0.00 0.00 94 1008.1
20260906105456 27 0 0.0 0.0 0.00 0.00 0.00 94 1008.1
20260906104557 27 0 0.0 0.0 0.00 0.00 0.00 93 1007.9
20260906103657 27 0 0.0 0.0 0.00 0.00 0.00 93 1007.9
20260906101857 27 0 0.0 0.0 0.00 0.00 0.00 92 1007.8
20260906100957 27 0 0.0 0.0 0.00 0.00 0.00 92 1007.8
20260906100056 27 0 0.0 0.0 0.00 0.00 0.00 92 1007.7
20260906095156 27 0 0.0 0.0 0.00 0.00 0.00 91 1007.7
20260906094256 27 0 0.0 0.0 0.00 0.00 0.00 91 1007.7
20260906093356 27 0 0.0 0.0 0.00 0.00 0.00 91 1007.6
20260906092457 27 0 0.0 0.0 0.00 0.00 0.00 90 1007.6
20260906091556 27 0 0.0 0.0 0.00 0.00 0.00 90 1007.5
20260906090656 27 0 0.0 0.0 0.00 0.00 0.00 90 1007.5
20260906085757 27 0 0.0 0.0 0.00 0.00 0.00 90 1007.5
20260906083956 27 0 0.0 0.0 0.00 0.00 0.00 90 1007.5
20260906083056 27 0 0.0 0.0 0.00 0.00 0.00 90 1007.5
20260906082156 27 0 0.0 0.0 0.00 0.00 0.00 90 1007.5
20260906081256 28 0 0.0 0.0 0.00 0.00 0.00 89 1007.5
20260906075456 27 0 0.0 0.0 0.00 0.00 0.00 89 1007.7
20260906074557 27 0 0.0 0.0 0.00 0.00 0.00 89 1007.9
20260906073656 28 0 0.0 0.0 0.00 0.00 0.00 89 1007.9
20260906070957 28 0 0.0 0.0 0.00 0.00 0.00 89 1008.0
20260906065156 28 0 0.0 0.0 0.00 0.00 0.00 88 1008.0
20260906064256 28 0 0.0 0.0 0.00 0.00 0.00 88 1008.0
20260906063356 28 0 0.0 0.0 0.00 0.00 0.00 88 1008.0
20260906062457 28 0 0.0 0.0 0.00 0.00 0.00 88 1008.0
20260906054856 28 213 0.0 6.4 0.00 0.00 0.00 88 1008.0
20260906053957 28 0 0.0 0.0 0.00 0.00 0.00 88 1008.0
20260906053056 28 223 0.0 8.0 0.00 0.00 0.00 88 1008.0
20260906052156 28 227 0.0 9.7 0.00 0.00 0.00 88 1008.1
20260906051256 28 205 1.6 11.3 0.00 0.00 0.00 88 1008.1
20260906050357 28 202 0.0 14.5 0.00 0.00 0.00 88 1008.1
20260906045457 28 179 0.0 9.7 0.00 0.00 0.00 88 1008.1
20260906044556 28 0 0.0 0.0 0.00 0.00 0.00 88 1008.1
20260906043657 28 0 0.0 0.0 0.00 0.00 0.00 88 1008.1
20260906042756 28 185 1.6 14.5 0.00 0.00 0.00 88 1008.1
20260906041856 28 185 3.2 16.1 0.00 0.00 0.00 87 1008.2
20260906040957 28 186 0.0 1.6 0.00 0.00 0.00 87 1008.2
20260906040056 28 185 1.6 11.3 0.00 0.00 0.00 87 1008.2
20260906035157 28 184 0.0 9.7 0.00 0.00 0.00 87 1008.2
20260906033356 28 0 0.0 0.0 0.00 0.00 0.00 86 1008.2
20260906030656 28 178 0.0 9.7 0.00 0.00 0.00 86 1008.0
20260906025757 29 178 0.0 12.9 0.00 0.00 0.00 85 1008.0
20260906024857 29 178 0.0 12.9 0.00 0.00 0.00 86 1007.7
20260906023956 29 172 1.6 8.0 0.00 0.00 0.00 85 1007.7
20260906023057 29 0 0.0 0.0 0.00 0.00 0.00 85 1007.5
20260906022156 29 171 0.0 11.3 0.00 0.00 0.00 84 1007.5
20260906020356 29 175 0.0 9.7 0.00 0.00 0.00 83 1007.3
20260906015456 30 184 0.0 6.4 0.00 0.00 0.00 83 1007.3
20260906014556 30 188 1.6 12.9 0.00 0.00 0.00 83 1007.1
20260906013656 30 199 1.6 12.9 0.00 0.00 0.00 82 1007.1
20260906012756 30 161 0.0 6.4 0.00 0.00 0.00 83 1007.1
20260906011856 30 0 0.0 0.0 0.00 0.00 0.00 83 1007.0
20260906010956 30 161 0.0 4.8 0.00 0.00 0.00 82 1007.0
20260906010056 30 0 0.0 0.0 0.00 0.00 0.00 82 1007.0
20260906005156 30 0 0.0 0.0 0.00 0.00 0.00 82 1007.0
20260906003356 30 120 0.0 16.1 0.00 0.00 0.00 80 1007.0
20260906002456 31 109 1.6 11.3 0.00 0.00 0.00 79 1007.0
20260906001556 31 103 0.0 8.0 0.00 0.00 0.00 77 1007.2
20260905235756 31 106 0.0 8.0 0.00 0.00 0.00 73 1007.5
20260905233956 31 0 0.0 0.0 0.00 0.03 0.00 73 1007.5
20260905233056 31 0 0.0 0.0 0.00 0.03 0.00 74 1007.5
20260905231256 31 0 0.0 0.0 0.00 0.03 0.00 75 1007.3
20260905230356 31 101 0.0 9.7 0.00 0.03 0.00 74 1007.1
20260905225456 31 0 0.0 0.0 0.00 0.03 0.00 73 1007.1
20260905224556 32 0 0.0 0.0 0.00 0.03 0.00 77 1007.0
20260905223656 32 0 0.0 0.0 0.00 0.03 0.00 75 1007.0
20260905222756 32 213 0.0 12.9 0.00 0.03 0.00 75 1007.0